Temp
5 7 6 4 4 4 3 2 3 3 2 2 2 2 3 3 3 2 3 3 5 4
3 3 3 3 2 2 2 1 2 1 1 1 1 1 2 2 2 2 2 2 2 2
2 2 1 1 1 1 0 0 0 0 0 0 -0 0 -0 -0 0 1 1 1 1 1
0 0 -1 -1 -0 -0 -0 -0 -0 -1 -2 -2 -2 -2 -1 -1 -2 -2 -2 -2 -1 -2
-2 -2 -1 -1 -1 -1 -1 -1 -2 -2 -2 -3 -4 -4 -3 -3 -4 -3 -3 -4 -4 -4
-3 -2 -2 -1 -2 -2 -2 -2 -2 -3 -3 -3 -2 -2 -3 -4 -4 -4 -4 -3 -3 -4
-3 -3 -3 -3 -3 -3 -3 -3 -3 -3 -3 -3 -3 -4 -4 -4 -5 -5 -5 -5 -5 -5
-5 -5 -5 -5 -5 -5 -4 -4 -4 -4 -4 -4 -4 -4 -4 -4 -5 -5 -5 -5 -5 -5
-7 -7 -7 -7 -7 -6 -6 -6 -5 -5 -5 -5 -5 -5 -5 -5 -5 -5 -5 -6 -6 -6
-9 -9 -8 -8 -7 -7 -7 -7 -7 -7 -6 -6 -6 -6 -6 -6 -6 -6 -6 -6 -7 -7
-9 -9 -9 -9 -9 -9 -9 -9 -8 -8 -7 -7 -7 -7 -8 -7 -7 -7 -7 -7 -7 -8
-10 -10 -10 -9 -9 -9 -9 -9 -9 -8 -8 -8 -8 -8 -8 -8 -8 -8 -8 -8 -8 -8
-11 -11 -10 -10 -10 -10 -9 -9 -9 -9 -8 -8 -8 -8 -9 -9 -8 -8 -8 -8 -8 -8
-12 -11 -11 -11 -10 -10 -10 -10 -9 -9 -9 -9 -9 -9 -8 -9 -8 -8 -8 -8 -8 -8
Height
1423 1429 1434 1438 1442 1448 1453 1456 1462 1467 1472 1475 1482 1485 1491 1495 1500 1502 1507 1510 1512 1516
1421 1426 1430 1435 1441 1445 1449 1454 1458 1462 1468 1472 1478 1482 1488 1492 1496 1499 1504 1507 1509 1512
1418 1425 1429 1434 1440 1443 1447 1451 1454 1459 1463 1467 1474 1476 1485 1487 1491 1496 1500 1503 1506 1508
1416 1424 1429 1434 1438 1441 1445 1448 1452 1455 1459 1463 1470 1472 1482 1484 1487 1492 1497 1498 1501 1505
1421 1425 1429 1432 1436 1440 1444 1447 1450 1454 1457 1462 1466 1471 1478 1481 1484 1486 1493 1493 1496 1500
1421 1425 1428 1432 1436 1439 1442 1444 1448 1451 1456 1460 1464 1469 1474 1478 1481 1485 1487 1491 1494 1497
1422 1425 1429 1433 1436 1438 1441 1444 1447 1451 1455 1459 1463 1467 1471 1475 1479 1482 1486 1490 1492 1494
1424 1426 1429 1432 1435 1438 1440 1443 1447 1450 1455 1459 1463 1467 1470 1474 1478 1481 1484 1486 1488 1491
1426 1428 1430 1432 1435 1437 1440 1444 1447 1450 1455 1460 1464 1467 1469 1473 1476 1477 1479 1482 1485 1488
1429 1429 1430 1432 1435 1439 1441 1445 1449 1451 1455 1460 1464 1467 1468 1470 1472 1474 1477 1480 1483 1486
1432 1433 1434 1436 1438 1441 1444 1448 1452 1452 1455 1459 1464 1467 1467 1468 1470 1472 1475 1477 1480 1484
1438 1439 1439 1439 1441 1443 1447 1450 1450 1453 1455 1458 1461 1464 1466 1467 1468 1471 1473 1475 1477 1480
1442 1442 1442 1441 1442 1445 1448 1450 1451 1453 1455 1457 1460 1462 1463 1465 1467 1470 1473 1476 1477 1477
1443 1443 1443 1443 1444 1445 1447 1449 1451 1453 1455 1456 1459 1459 1460 1464 1465 1468 1471 1475 1477 1477
Wind_Speed
26 27 26 21 21 23 23 24 27 30 30 27 25 23 23 24 24 23 23 22 21 19
16 17 17 14 15 15 16 19 20 23 27 28 27 23 22 21 21 21 20 19 19 19
18 14 13 14 13 14 16 18 19 21 21 22 24 25 26 24 23 20 18 16 15 15
15 15 13 13 12 12 13 15 17 18 19 21 21 22 23 22 22 19 22 25 23 16
15 14 12 10 9 11 13 15 16 18 19 19 20 21 21 20 19 20 21 17 17 16
11 8 7 8 11 10 11 13 16 18 19 19 20 20 19 17 17 19 15 17 15 13
6 6 7 8 10 12 12 12 14 17 18 19 19 18 17 15 14 12 10 10 13 14
10 9 8 7 8 9 11 12 13 15 17 18 17 18 18 18 16 14 13 12 13 12
12 11 11 10 9 9 10 11 13 14 15 16 16 17 17 17 14 12 10 11 12 11
15 14 13 11 10 10 11 11 12 15 15 15 15 14 15 13 10 8 8 9 10 11
13 12 10 10 11 11 11 12 12 13 14 13 11 10 8 8 8 7 8 11 11 12
11 11 10 10 9 7 7 9 9 10 11 11 11 14 14 11 10 9 6 8 9 10
7 6 6 7 7 6 6 6 7 8 9 10 11 11 13 11 9 11 9 8 9 10
5 4 3 2 3 3 3 4 4 6 7 8 9 10 10 9 10 11 10 10 10 8
Wind_Direction
212 217 218 212 215 222 223 219 214 215 216 215 212 209 215 215 219 223 226 229 235 246
189 175 177 182 188 197 206 214 214 214 214 209 211 205 206 207 215 219 227 233 235 238
157 166 167 174 186 189 197 206 207 208 206 207 210 211 214 212 211 214 216 220 223 229
154 165 169 173 182 192 196 199 203 203 200 195 197 192 207 206 209 217 233 233 231 225
145 152 161 173 193 201 203 203 200 198 196 199 198 197 207 208 213 224 225 214 214 227
138 151 179 212 221 217 209 200 197 194 193 192 192 194 205 227 219 220 232 241 244 249
137 164 189 202 206 206 199 191 189 190 192 194 196 201 204 199 213 232 226 248 239 242
115 126 138 153 166 173 179 180 182 185 186 190 193 194 194 194 193 215 240 236 227 224
99 112 122 128 133 143 152 161 171 171 179 182 185 187 190 199 230 243 234 227 224 216
83 89 93 98 111 125 135 143 152 157 166 177 185 193 208 227 223 213 206 206 209 209
73 78 86 96 104 115 127 140 152 159 168 181 203 213 203 184 169 172 200 209 217 219
74 83 90 99 112 135 161 178 182 190 198 206 202 187 182 200 211 194 190 195 201 208
56 77 94 101 110 127 144 155 164 172 183 189 194 197 189 207 194 201 211 215 207 215
24 29 47 95 131 141 158 175 184 192 197 200 201 201 201 197 217 228 239 237 227 224